PSLV DEB, 39094

Orbit data source: Space-Track

PSLV DEB, 39094 is space debris in SSO originally from a launch on Mon, 25 Feb 2013 UTC launched from the Sirharikota (SRI). Debris objects in space refer to the collection of defunct objects orbiting the Earth. Examples of debris include non-operational satellites, rocket bodies, and fragments generated from explosions, collisions, or faulty payload assembly.

Loading next visibility...
Identifier
39094, 2013-009J
Orbit
SSO
Country
Flag of ININ / IND
Related business
Manufacturer
VSSC/LPSC
Mission
Spacecraft
Bus & Motor
DLA, Unknown motor
Mass
~100 kg wet, ~100 kg dry
Launch date (UTC)
2013-02-25 (13 years ago)
Launch vehicle
Unknown
Launch site
Sirharikota (SRI)
Object type
Payload
Rocket body
Debris
Shape & HBR
Trunc Cone, 1.3 m
Radar Cross Section
4.504 m², Large (>1 m²)

Expand to show TLE details & history
Last TLE update: 20 hours ago

TLE from 20 hours ago
0 PSLV DEB
1 39094U 13009J   26094.53967012  .00002490  00000-0  73598-3 0  9992
2 39094  98.3278 285.2785 0009546  32.8578 327.3205 14.44292491687483
Epoch: 2026-04-04T12:57Z
TLE epoch observation values (Epoch: 2026-04-04T12:57:07.498Z)
Latitude
-0°
Longitude
-101.86073°
Altitude
741.589 km
Speed
7.487 km/s
True Right ascension
19h 01m 06s
True Declination
0° 00' 00"
Sunlit
Object was in daylight at epoch
Visualization orbit readout
Latitude
Unknown
Longitude
Unknown
Altitude
Unknown
Speed
Unknown
Apparent Right ascension
Unknown
Apparent Declination
Unknown
Sunlit
N/A
Visualization observer readout
Local Sidereal Time
14:59:41
Azimuth
Unknown
Elevation
Unknown
Doppler factor
Unknown
Orbital elements
Apogee altitude
748.256 km
Perigee altitude
734.663 km
Semi-major axis
7,119.596 km
Eccentricity
0.00095
Inclination
98.3278°
RAAN
285.2785°
Arg. of periapsis
32.8578°
True anomaly
327.26138°
Mean anomaly
327.3205°
Eccentric anomaly
327.29094°
Mean motion
3.61293 °/min
Orbital period
99.64 mins
BSTAR
0.00073598
Loading maneuver chart data...
Computing Atmospheric mass density...
Loading historical data...
Loading historical data...
Loading historical data...
Loading historical data...
Loading historical data...
Loading historical data...
Loading historical data...

Documentation

Showing up to 5 results
|